DECAYED

CZ-6A DEB, 55880 (Decayed)

Orbit data source: Space-Track

CZ-6A DEB, 55880 was space debris in SSO originally from a launch on Fri, 11 Nov 2022 UTC launched from the Taiyaun Space Center, China (TSC). Debris objects in space refer to the collection of defunct objects orbiting the Earth. Examples of debris include non-operational satellites, rocket bodies, and fragments generated from explosions, collisions, or faulty payload assembly.

Not visible in the next 10 days
Identifier
55880, 2022-151AAC
Orbit
Decayed
Country
Flag of CNCN / PRC
Related business
Manufacturer
SAST
Mission
Decayed spacecraft
Bus & Motor
Unknown
Mass
Unknown
Launch date (UTC)
2022-11-11 (4 years ago)
Launch vehicle
Unknown
Launch site
Taiyaun Space Center, China (TSC)
Object type
Payload
Rocket body
Debris
Shape & HBR
Unknown shape, 0.1 m
Radar Cross Section
Medium (>0.1 m² and <1 m²)

Expand to show TLE details & history
Last TLE update: 8 months ago

TLE from 8 months ago
0 CZ-6A DEB
1 55880U 22151AAC 25286.24851679  .01191548  00000-0  14972-1 0  9995
2 55880  98.7736  36.7567 0023948 245.9954 113.8790 15.56545828144250
Epoch: 2025-10-13T05:57Z
TLE epoch observation values (Epoch: 2025-10-13T05:57:51.850Z)
Latitude
Longitude
-74.76336°
Altitude
407.362 km
Speed
7.663 km/s
True Right ascension
02h 27m 01s
True Declination
0° 00' 00"
Sunlit
Object was in full shadow at epoch
Visualization orbit readout
Latitude
Unknown
Longitude
Unknown
Altitude
Unknown
Speed
Unknown
Apparent Right ascension
Unknown
Apparent Declination
Unknown
Sunlit
N/A
Visualization observer readout
Local Sidereal Time
21:35:51
Azimuth
Unknown
Elevation
Unknown
Doppler factor
Unknown
Orbital elements
Apogee altitude
410.864 km
Perigee altitude
378.425 km
Semi-major axis
6,772.782 km
Eccentricity
0.00239
Inclination
98.7736°
RAAN
36.7567°
Arg. of periapsis
245.9954°
True anomaly
114.12963°
Mean anomaly
113.879°
Eccentric anomaly
114.00435°
Mean motion
3.89397 °/min
Orbital period
92.45 mins
BSTAR
0.014972
Loading maneuver chart data...
Computing Atmospheric mass density...
Loading historical data...
Loading historical data...
Loading historical data...
Loading historical data...
Loading historical data...
Loading historical data...
Loading historical data...

Documentation

Showing up to 5 results
|